Погода в Горячинске

Погода в Горячинске : погода сейчас, прогноз погоды и архив. Всё, что Вы хотите узнать о погоде в Горячинске!

Поиск расширенной информации на нашем сайте:

Другие новости

Новости СМИ2

Главная страница сайта

Новости сайта

02.10.2013

Напоминаем, что на нашем новом сайте вы можете получить высокодетализированные прогнозы погоды по пунктам России, СНГ и мира (включающие важные для авиации метеовеличины, такие как направление и скорость ветра, видимость, явления погоды, количество и форма облачности, нижняя и верхняя граница облачности), а также ознакомиться с разнообразными материалами по авиационной метеорологии и подборкой полезных ссылок на эту тему.

Сайт Метеоцентр.Азия посвящён разработке технологий оптимизации авиаметеорологического обслуживания, включая проектирование и перспективное создание нескольких автоматизированных авиаметеорологических систем:
- система выпуска высокодетальных прогностических карт явлений погоды для нижнего воздушного пространства по России и ближнему зарубежью;
- система верификации прогнозов TAF (выпускаемых синоптиками официальных АМСГ РФ и ближнего зарубежья) и AUTOTAF (выпускаемых сайтом Метеоцентр.Азия) - выявление ошибок, онлайн-сопоставление с фактической погодой METAR, автоматическое внесение коррективов в прогнозы при резком отклонении фактической погоды от прогноза, подсчёт оправдываемости прогнозов по элементам и в целом;
- система обработки, анализа и отображения авиаметеорологической информации для применения провайдерами метеорологической информации.

Рекомендуем: Два месяца назад я сделала инъекции ботакса www.entelia74.ru.

Погода в Горячинске - сегодня

Время (UTC), дата Ветер
(°,м/с) 
Видим.   Явления Облачность Т
(°С)
Тd
(°С)
f(%) Тe
(°С)
Pmin
(гПа)
dP
(гПа)
Po
(мм)
O2
(г/м3)
Тmin Tmax R s Состояние
почвы
00 27.04.17 280 (З) 20000 м    10/3 600 м средняя 
[Sc|Ac As]
+8.4 -3.2 44 +8  1021.4  0.7  722  283  +1         
03 27.04.17 280 (З) 10 км  дым  10/10 1000 м 
[Sc]
+10.7 -3.6 36 +10  1021.1  -0.1  722  280           
06 27.04.17 290 (З) 10 км  дым  10/8 1000 м средняя, верхняя 
[Sc|Ac trans|Ci sp]
+11.5 -3.1 36 +13  1019.6  -1.3  722  279           
09 27.04.17 280 (З) 10 км  дым  10/3 1000 м средняя, верхняя 
[Sc|Ac trans|Ci sp]
+13 -3.9 31 +14  1017  -2.1  720  277           
12 27.04.17 130 (ЮВ) н/о  дым  5/3 1000 м верхняя 
[Sc|Ci sp]
+8 -0.6 55 +9  1016.2  -1.7  719  281    +13.2       
15 27.04.17 130 (ЮВ) н/о  дым  5/0 верхняя 
[Ci sp]
+4.6 -0.9 67 +5  1015.7  -1.2  718  284           
18 27.04.17 130 (ЮВ) н/о  дым  6/0 верхняя 
[Ci sp]
+2.4 -1.3 77 +3  1014.7  -1.3  717  286           
21 27.04.17 180 (Ю) 10 км  дым  3/0 верхняя 
[Ci sp]
+9.5 -2.6 43 +9  1011.4  -1.6  715  279           
00 28.04.17 360 (С) 10 км  дым  3/0 верхняя 
[Ci fib]
+9.1 -0.9 50 +10  1010.5  -0.9  715  279  +2         
03 28.04.17 290 (З) 3{10}  10 км  дым  3/0 верхняя 
[Ci sp]
+12.7 -3 33 +13  1007.9  -1.8  713  275           
06 28.04.17 230 (ЮЗ) 7-11{13}  10 км  дым  10/0 средняя, верхняя 
[Ac lent|Ci sp]
+20.1 -4.8 18 +20  1003.5  -2.8  711  267           
09 28.04.17 240 (ЮЗ) 8-15{15}  10 км  дым  4/0 средняя, верхняя 
[Ac lent|Ci sp]
+21.5 -6 15 +22  1000.9  -2.1  710  266           
12 28.04.17 150 (ЮВ) 2{17}  н/о    10/8 1000 м средняя 
[Sc|Ac und]
+12 -2.8 35 +12  1003.9  1.1  710  274    +23.1       
15 28.04.17 010 (С) 2{12}  н/о    10/0 средняя 
[Ac und]
+11.8 +0.3 45 +12  1006.4  2.4  712  275           
18 28.04.17 170 (Ю) н/о    н/о 
+6 -2.9 53 +7  1010.4  2.6  714  282           
21 28.04.17 180 (Ю) 20000 м    ясно 
+1.9 -4.3 63 +3  1013.3  1.9  716  287           
00 29.04.17 270 (З) 20000 м    9/0 средняя, верхняя 
[Ac lent|Ci]
+4.8 -4.2 52 +4  1015.2  2.3  717  284  +1.1         
03 29.04.17 260 (З) 20000 м    6/0 верхняя 
[Cc]
+8 -4.3 41 +8  1014.7  0.2  718  281           
06 29.04.17 270 (З) 20000 м    8/0 верхняя 
[Cc]
+10.9 -9.3 23 +11  1013  -1.1  717  278           
09 29.04.17 340 (С) 20000 м    10/0 средняя 
[Ac und]
+11.5 -10.1 21 +13  1011.1  -1.7  715  277           
12 29.04.17 250 (З) 20000 м    10/8 600 м средняя 
[Sc|Ac und]
+8.6 -7.2 32 +10  1011.3  -0.3  715  280    +12.9       
15 29.04.17 050 (СВ) н/о    10/0 средняя 
[Ac und]
+2 -2.2 74 +3  1014  1.2  716  287           
18 29.04.17 140 (ЮВ) н/о    10/0 средняя 
[Ac und]
-0.3 -3.1 81 1015  0.4  716  289           
21 29.04.17 070 (В) 20000 м    10/10 600 м 
[Sc]
+4.5 -2 63 +5  1013  -0.8  716  284           
00 30.04.17 240 (ЮЗ) 10 км  дым  9/9 600 м 
[Sc]
+9 +3.8 70 +8  1012.7  0.7  716  279  -1         
Время (UTC), дата Ветер
(°,м/с) 
Видим.   Явления Облачность Т
(°С)
Тd
(°С)
f(%) Тe
(°С)
Pmin
(гПа)
dP
(гПа)
Po
(мм)
O2
(г/м3)
Тmin Tmax R s Состояние
почвы

Для получения пояснительной информации подведите курсор к названию столбца.

ПОГОДА в Горячинске - архив

Всё, что Вы хотите узнать о погоде в Горячинске - удобно и подробно!

Выберите нужную дату (начиная с 1 января 2015* года) и нажмите кнопку "Найти".
Будут отображены архивные сводки погоды по пункту Горячинск, начиная с указанной даты.


Отображать данные в формате CSV (для использования в таблицах Excel)


Внимание! Наш архив погоды предназначен исключительно для личного некоммерческого использования в познавательных целях. Если Вам необходимы официальные справки о состоянии погоды (для производственных, юридических, коммерческих и т.п. целей), обращайтесь в органы Росгидромета.

*Примечание: данная дата относится к архиву по метеостанциям СССР (Россия, СНГ, Балтия).
Архив по метеостанциям Зарубежной Европы и Азии (кроме Китая) хранится 10 дней, по другим регионам земного шара (Китай, Африка, Америка, Австралия, Океания) - 1 день.

Горячинск - район местоположения метеостанции


Название, широта, долгота, высота метеостанции:
Горячинск 53°ш. 108.3°д. 487 м над ур. моря [Российская Федерация]

Дополнительная информация

В oтличие oт бoльшинства пoгoдных сайтoв мы публикуем пoдрoбную метеoинфoрмацию в детальнoм прoфессиoнальнoм фoрмате.

Характеристики температуры и влажнoсти вoздуха измеряются на высoте 2 м в тени вдали oт зданий и деревьев.
Скoрoсть ветра измеряется на высoте 10 м (на урoвне рoста челoвека скoрoсть ветра ниже в 1.5-2 раза). Если метеoстанция нахoдится в гoрoде или в лесу, тo скoрoсть ветра занижена на 2-4 м/с пo сравнению с oткрытым местoм. Скoрoсть ветра над акватoриями крупных рек и oзёр, а также на вершинах хoлмoв на 2-5 м/с выше, чем в oбычных услoвиях.
Атмoсфернoе давление в разных тoчках местнoсти мoжет значительнo oтличаться oт давления на метеoстанции, в зависимoсти oт услoвий рельефа (при пoдъёме на 10 м давление пoнижается примернo на 1 мм рт.ст.).